Location: Asheville, NC
(35.6000°N, 82.5500°W)
Time: 15:30:55
(UTC-04:00)

STRAND 1 - Pass Details

Date: 16 March 2018
Orbit: 769 x 780 km, 98.5° (Epoch: 25 June)

Event Time Altitude Azimuth Distance (km) Brightness Sun altitude
Rises 22:16:42 0° 354° (N) 3,258 ? -32.1°
Reaches altitude 10° 22:19:42 10° 336° (NNW) 2,324 ? -32.7°
Maximum altitude 22:23:03 18° 295° (WNW) 1,832 ? -33.3°
Drops below altitude 10° 22:26:22 10° 254° (WSW) 2,310 ? -33.9°
Sets 22:29:21 0° 235° (SW) 3,231 ? -34.4°
